Погода в Пружанах

Беларусь     52˚33′18″N   24˚27′45″E
темп.,
°C
ветер,
м/с
пор.,
м/с
влажн.,
%
обл.,
%
осадки,
мм/ч
давл.,
гПа
погр.,
м
6 декабря, вс
вс600:00+5˚юв7158747 0.0 1022609
03:00+4˚юв8168647 0.0 1022644
06:00+4˚юв9148498 0.0 1022760
09:00+3˚юв8148299 0.0 1023758
12:00+2˚юв9147998 0.0 1024680
15:00+2˚юв9157585 0.0 1024695
18:00+1˚юв816689 0.0 1024708
21:00юв916684 0.0 1025674
7 декабря, пн
пн700:00−1˚юв916560 0.0 1025664
03:00−1˚юв917530 0.0 1024671
06:00−2˚юв917520 0.0 1023699
09:00−2˚юв1017540 0.0 1023704
12:00−1˚юв10164714 0.0 1023762
15:00−1˚юв10164341 0.0 1023797
18:00−2˚юв9165143 0.0 1023755
21:00−3˚юв9175830 0.0 1023670
8 декабря, вт
вт800:00−4˚юв915698 0.0 1023778
03:00−4˚юв9157554 0.0 1023769
06:00−4˚юв81576100 0.0 1023677
09:00−4˚вюв8146988 0.0 1023651
12:00−3˚вюв813646 0.0 1023607
15:00−2˚юв712613 0.0 1023676
18:00−3˚вюв713680 0.0 1024646
21:00−4˚юв712700 0.0 1025635
9 декабря, ср
ср900:00−5˚юв6117441 0.0 1025554
03:00−5˚вюв7117759 0.0 1025460
06:00−4˚вюв61078100 0.0 1025414
09:00−4˚вюв61082100 0.0 1025394
12:00−3˚вюв6117398 0.0 1025528
15:00−2˚вюв6106281 0.0 1024560
18:00−4˚вюв7116733 0.0 1023558
21:00−4˚вюв6118736 0.0 1023515
10 декабря, чт
чт1000:00−4˚вюв6109099 0.6 1022509
03:00−3˚вюв6118798 0.7 1021436
06:00−3˚вюв61289100 0.3 1020496
09:00−1˚вюв71393100 0.6 1019532
12:00вюв71493100 0.5 1019497
15:00+1˚вюв71396100 3.3 1017436
18:00+1˚вюв71396100 2.4 1017427
21:00+2˚вюв51197100 2.7 1017344